Weather History for Curacao, Curacao

Change the Weather History Date:

Wednesday, March 13, 2013

  Actual Average Record
Temperature  
Mean Temperature 82 °F -  
Max Temperature 86 °F 85 °F 89 °F (1999)
Min Temperature 79 °F 75 °F 71 °F (2011)
Cooling Degree Days 18    
Growing Degree Days 32 (Base 50)    
Moisture  
Dew Point 74 °F    
Average Humidity 78    
Maximum Humidity 89    
Minimum Humidity 61    
Precipitation  
Precipitation 0.01 in 0.02 in - ()
Sea Level Pressure  
Sea Level Pressure 29.91 in    
Wind  
Wind Speed 12 mph ()    
Max Wind Speed 16 mph    
Max Gust Speed -    
Visibility 7.0 miles    
Events Rain    
Averages and records for this station are not official NWS values.
T = Trace of Precipitation, MM = Missing Value Source: Averaged Metar Reports

Daily Weather History Graph

Daily Weather History Graph

Search for Another Location

Airport:

Trip Planner

Search our weather history database for the weather conditions in past years. The results will help you decide how hot, cold, wet, or windy it might be!

Date:

Astronomy

Mar. 13, 2013 Rise Set
Actual Time 6:44 AM AST 6:46 PM AST
Civil Twilight 6:23 AM AST 7:07 PM AST
Nautical Twilight 5:58 AM AST 7:32 PM AST
Astronomical Twilight 5:34 AM AST 7:56 PM AST
Moon 7:48 AM AST (3/13) 8:27 PM AST (3/13)
Length of Visible Light 12h 44m
Length of Day
12h 02m
Waxing Crescent, 4% of the Moon is Illuminated
Mar 13
Waxing Crescent
Mar 19
First Quarter
Mar 27
Full
Apr 3
Last Quarter
Apr 10
New

Hourly Weather History & Observations

Time (AST) Temp. Heat Index Dew Point Humidity Pressure Visibility Wind Dir Wind Speed Gust Speed Precip Events Conditions
12:00 AM 78.8 °F - 73.4 °F 83% 29.95 in 6.2 mi East 12.7 mph - N/A   Scattered Clouds
1:00 AM 80.6 °F 86.2 °F 75.2 °F 84% 29.92 in 6.2 mi East 12.7 mph - N/A   Scattered Clouds
2:00 AM 79 °F - 74 °F 80% 29.91 in 7 mi East 12.7 mph - -   Haze
2:00 AM 78.8 °F - 73.4 °F 83% 29.89 in 6.2 mi East 12.7 mph - N/A   Partly Cloudy
3:00 AM 78.8 °F - 73.4 °F 83% 29.89 in 6.2 mi East 13.8 mph - N/A   Scattered Clouds
4:00 AM 78.8 °F - 75.2 °F 89% 29.86 in 6.2 mi East 11.5 mph - N/A   Partly Cloudy
5:00 AM 80 °F - 74 °F 77% 29.89 in 7 mi East 12.7 mph - -   Haze
5:00 AM 78.8 °F - 73.4 °F 83% 29.89 in 6.2 mi East 12.7 mph - N/A   Scattered Clouds
6:00 AM 78.8 °F - 73.4 °F 83% 29.89 in 6.2 mi East 15.0 mph - N/A   Scattered Clouds
7:00 AM 80.6 °F 86.2 °F 75.2 °F 84% 29.92 in 6.2 mi ENE 12.7 mph - N/A Rain Light Rain Showers
8:00 AM 80 °F - 75 °F 80% 29.94 in 7 mi East 12.7 mph - - Rain Light Rain Showers
8:00 AM 80.6 °F 86.2 °F 75.2 °F 84% 29.92 in 6.2 mi East 13.8 mph - N/A   Mostly Cloudy
9:00 AM 80.6 °F 86.2 °F 75.2 °F 84% 29.95 in 6.2 mi East 11.5 mph - N/A   Mostly Cloudy
10:00 AM 82.4 °F 89.5 °F 75.2 °F 79% 29.98 in 6.2 mi East 12.7 mph - N/A Rain Light Rain Showers
11:00 AM 84 °F - 75 °F 69% 29.97 in 9 mi East 12.7 mph - - Rain Light Rain Showers
11:00 AM 86.0 °F 95.1 °F 75.2 °F 70% 29.98 in 6.2 mi East 12.7 mph - N/A   Scattered Clouds
12:00 PM 86.0 °F 95.1 °F 75.2 °F 70% 29.95 in 6.2 mi East 12.7 mph - N/A   Mostly Cloudy
1:00 PM 86.0 °F 95.1 °F 75.2 °F 70% 29.92 in 6.2 mi East 13.8 mph - N/A   Partly Cloudy
2:00 PM 87 °F - 75 °F 61% 29.91 in 12 mi East 12.7 mph - -   Haze
2:00 PM 86.0 °F 95.1 °F 75.2 °F 70% 29.89 in 6.2 mi East 12.7 mph - N/A   Scattered Clouds
3:00 PM 86.0 °F 95.1 °F 75.2 °F 70% 29.89 in 6.2 mi East 16.1 mph - N/A   Scattered Clouds
4:00 PM 86.0 °F 95.1 °F 75.2 °F 70% 29.86 in 6.2 mi East 13.8 mph - N/A   Scattered Clouds
5:00 PM 82.4 °F 89.5 °F 75.2 °F 79% 29.86 in 6.2 mi East 13.8 mph - N/A   Scattered Clouds
6:00 PM 80.6 °F 85.4 °F 73.4 °F 79% 29.86 in 6.2 mi East 15.0 mph - N/A   Scattered Clouds
7:00 PM 80.6 °F 85.4 °F 73.4 °F 79% 29.86 in 6.2 mi East 15.0 mph - N/A   Scattered Clouds
8:00 PM 80 °F - 74 °F 78% 29.88 in 12 mi East 13.8 mph - -   Haze
8:00 PM 80.6 °F 86.2 °F 75.2 °F 84% 29.89 in 6.2 mi East 13.8 mph - N/A   Scattered Clouds
9:00 PM 80.6 °F 85.4 °F 73.4 °F 79% 29.89 in 6.2 mi East 13.8 mph - N/A   Scattered Clouds
10:00 PM 80.6 °F 85.4 °F 73.4 °F 79% 29.92 in 6.2 mi East 12.7 mph - N/A   Scattered Clouds
11:00 PM 80 °F - 74 °F 76% 29.94 in 14 mi East 12.7 mph - -   Partly Cloudy
11:00 PM 80.6 °F 85.4 °F 73.4 °F 79% 29.92 in 6.2 mi East 12.7 mph - N/A   Scattered Clouds